This is the latest recevied weather packets stored in our database for station/object K2RMB. If no packets are shown the sender has not sent any weather packets the latest 10 day(s).
| Time | Temp. | Humidity | Pressure | Rain* | Wind** | Luminosity | Snow |
|---|---|---|---|---|---|---|---|
| 1777524024 | 10.56° C | 79% | 1009.3 hPa | 0.25 mm | - | 0 W/m² | - |
| 1777523721 | 10.56° C | 76% | 1009 hPa | 0.25 mm | - | 0 W/m² | - |
| 1777523417 | 10.56° C | 75% | 1009 hPa | 0 mm | - | 0 W/m² | - |
| 1777523114 | 11.11° C | 75% | 1009 hPa | 0 mm | - | 0 W/m² | - |
| 1777522810 | 11.67° C | 72% | 1009 hPa | 0 mm | - | 0 W/m² | - |
| 1777522507 | 11.67° C | 69% | 1009 hPa | 0 mm | - | 0 W/m² | - |
| 1777522204 | 11.67° C | 68% | 1009 hPa | 0 mm | - | 0 W/m² | - |
| 1777521901 | 11.67° C | 69% | 1009 hPa | 0 mm | - | 0 W/m² | - |
| 1777521597 | 11.67° C | 67% | 1009 hPa | 0 mm | - | 0 W/m² | - |
| 1777521295 | 11.67° C | 69% | 1009 hPa | 0 mm | - | 0 W/m² | - |
| 1777520991 | 11.67° C | 68% | 1009 hPa | 0 mm | - | 0 W/m² | - |
| 1777520689 | 11.67° C | 69% | 1009 hPa | 0 mm | - | 0 W/m² | - |
| 1777520385 | 11.67° C | 71% | 1009.3 hPa | 0 mm | - | 0 W/m² | - |
| 1777520083 | 11.67° C | 70% | 1009.3 hPa | 0 mm | - | 0 W/m² | - |
| 1777519779 | 11.67° C | 69% | 1009.3 hPa | 0 mm | - | 0 W/m² | - |
| 1777519477 | 11.67° C | 71% | 1009.8 hPa | 0 mm | - | 0 W/m² | - |
| 1777519173 | 12.22° C | 71% | 1009.3 hPa | 0 mm | - | 0 W/m² | - |
| 1777518868 | 12.22° C | 70% | 1009.8 hPa | 0 mm | - | 0 W/m² | - |
| 1777518565 | 12.22° C | 70% | 1009.8 hPa | 0 mm | - | 0 W/m² | - |
| 1777518261 | 12.78° C | 67% | 1009.8 hPa | 0 mm | - | 0 W/m² | - |
| 1777517958 | 13.33° C | 62% | 1009.8 hPa | 0 mm | - | 0 W/m² | - |
| 1777517654 | 13.33° C | 60% | 1009.8 hPa | 0 mm | - | 0 W/m² | - |
| 1777517350 | 13.33° C | 60% | 1009.8 hPa | 0 mm | - | 0 W/m² | - |
| 1777517049 | 13.33° C | 59% | 1010.1 hPa | 0 mm | - | 0 W/m² | - |
| 1777516747 | 13.33° C | 58% | 1010.1 hPa | 0 mm | - | 0 W/m² | - |
* Rain latest hour (hover to see other rain measurements)
** Current wind speed in m/s (hover to see current wind gust speed)